ASIASTAR

Last updated on Mon Sep 07 2026 00:02:56 GMT+0000 (Coordinated Universal Time)

1 26107U 00016A 26249.45044757 -.00000347 00000+0 00000+0 0 9995 2 26107 9.3147 57.2581 0003994 113.9279 81.5366 1.00271740 96733
UTC large
Height (km)
Speed (km/s)
/
Latitude / Longitude
Inclination (degrees)
Orbital Period (minutes)
Azimuth
Elevation
Range (km)
Doppler Factor

Next 0 passes for location: London (51.5072 / 0.1276)

No passes found over London.
ASIASTAR